Hourly Data Report for October 16, 2014

All times are specified in Local Standard Time (LST). Add 1 hour to adjust for Daylight Saving Time where and when it is observed.

OTTAWA INTL A
ONTARIO

45°19'00.000" N
75°40'00.000" W
114.90 m
6106001
71628
YOW

Download Data

Hourly Data (October 2014)
Hourly Data Report for October 16, 2014
Temp Definition
°C
Dew Point Temp Definition
°C
Rel Hum Definition
%
Wind Dir Definition
10's deg

Wind Spd Definition
km/h
Visibility Definition
km
Stn Press Definition
kPa
Hmdx Definition


Wind Chill Definition


Weather Definition


TIME
00:00 Legend Double Dagger 17.1 16.8 98 36 2 12.9 99.63     LegendNANA
01:00 Legend Double Dagger 16.9 16.7 99 4 16 12.9 99.52     Cloudy
02:00 Legend Double Dagger 17.4 17.2 99 36 2 12.9 99.51     LegendNANA
03:00 Legend Double Dagger 17.3 17.0 98 36 5 11.3 99.47     Rain
04:00 Legend Double Dagger 16.9 16.7 99 4 8 8.1 99.44     Fog
05:00 Legend Double Dagger 17.0 16.8 99 5 15 4.8 99.38     Fog
06:00 Legend Double Dagger 17.4 17.4 100 5 21 4.8 99.35     Fog
07:00 Legend Double Dagger 17.0 16.8 99 6 25 3.2 99.31     Rain,Fog
08:00 Legend Double Dagger 16.6 16.4 99 7 21 3.2 99.29     Rain,Fog
09:00 Legend Double Dagger 16.9 16.7 99 8 20 3.2 99.27     Rain,Fog
10:00 Legend Double Dagger 17.3 17.1 99 8 17 8.1 99.24     Rain,Fog
11:00 Legend Double Dagger 17.9 17.7 99 6 25 8.1 99.09     Rain,Fog
12:00 Legend Double Dagger 18.5 18.0 97 8 23 16.1 99.05     LegendNANA
13:00 Legend Double Dagger 18.9 18.4 97 9 17 16.1 98.99     Mostly Cloudy
14:00 Legend Double Dagger 19.7 18.7 94 8 18 16.1 98.92     LegendNANA
15:00 Legend Double Dagger 19.7 18.9 95 11 15 12.9 98.86     LegendNANA
16:00 Legend Double Dagger 18.2 16.7 91 7 12 16.1 98.75     Rain
17:00 Legend Double Dagger 17.1 16.8 98 10 8 12.9 98.79     Rain
18:00 Legend Double Dagger 17.0 16.2 95 14 14 11.3 98.82     Rain
19:00 Legend Double Dagger 15.7 14.9 95 15 9 24.1 98.80     Cloudy
20:00 Legend Double Dagger 15.8 15.5 98 18 9 24.1 98.74     LegendNANA
21:00 Legend Double Dagger 15.9 15.3 96 18 15 12.9 98.77     LegendNANA
22:00 Legend Double Dagger 14.9 14.3 96 16 10 12.9 98.78     Cloudy
23:00 Legend Double Dagger 14.2 13.6 96 17 13 12.9 98.82     LegendNANA

Notes on Data Quality.

Legend

  • E = Estimated
  • M = Missing
  • NA = Not Available
  • ‡ = Partner data that is not subject to review by the National Climate Archives
Date modified: